TITAN 3C TRANSTAGE DEB, 3454

Orbit data source: Space-Track

TITAN 3C TRANSTAGE DEB, 3454 is space debris in LEO originally from a launch on Fri, 15 Oct 1965 UTC launched from the Air Force Eastern Test Range (AFETR). Debris objects in space refer to the collection of defunct objects orbiting the Earth. Examples of debris include non-operational satellites, rocket bodies, and fragments generated from explosions, collisions, or faulty payload assembly.

Loading next visibility...
Identifier
3454, 1965-082PP
Orbit
LEO
Country
Flag of USUS
Related business
Manufacturer
Unknown
Mission
Spacecraft
Bus & Motor
Unknown
Mass
Unknown
Launch date (UTC)
1965-10-15 (61 years ago)
Launch vehicle
Unknown
Launch site
Air Force Eastern Test Range (AFETR)
Object type
Payload
Rocket body
Debris
Shape & HBR
Unknown shape, 0.1 m
Radar Cross Section
Small (<0.1 m²)

Expand to show TLE details & history
Last TLE update: 9 hours ago

TLE from 9 hours ago
0 TITAN 3C TRANSTAGE DEB
1 03454U 65082PP  26133.05601153  .00004871  00000-0  27557-3 0  9992
2 03454  32.2603 257.9912 0013823 312.7127  47.2371 15.11698762240566
Epoch: 2026-05-13T01:20Z
TLE epoch observation values (Epoch: 2026-05-13T01:20:39.396Z)
Latitude
0.00002°
Longitude
7.00555°
Altitude
523.176 km
Speed
7.608 km/s
True Right ascension
17h 11m 57s
True Declination
0° 00' 00"
Sunlit
Object was in full shadow at epoch
Visualization orbit readout
Latitude
Unknown
Longitude
Unknown
Altitude
Unknown
Speed
Unknown
Apparent Right ascension
Unknown
Apparent Declination
Unknown
Sunlit
N/A
Visualization observer readout
Local Sidereal Time
19:09:40
Azimuth
Unknown
Elevation
Unknown
Doppler factor
Unknown
Orbital elements
Apogee altitude
544.231 km
Perigee altitude
525.119 km
Semi-major axis
6,912.812 km
Eccentricity
0.00138
Inclination
32.2603°
RAAN
257.9912°
Arg. of periapsis
312.7127°
True anomaly
47.35353°
Mean anomaly
47.2371°
Eccentric anomaly
47.2953°
Mean motion
3.77625 °/min
Orbital period
95.33 mins
BSTAR
0.00027557

Documentation

Showing up to 5 results
|